sat.trackr.live / text

‹ back to catalog

STARLINK-37204

NORAD 68329 · 2026-059J

PAYLOAD ACTIVE UNKNOWN

§ Identity

Operator
Country
US
Launch date
2026-03-22
Launch site
AFETR
Launch vehicle
Mass (kg)
RCS (m²)

Purposes: comms

External: N2YO · Heavens-Above · Gunter

§ Orbital elements

Epoch: 2026-09-19T04:53:02.228064Z

Period
93.85 min
Inclination
53.1573°
Eccentricity
0.0000951
Mean motion
15.34417763 rev/d
Perigee alt
462.0 km
Apogee alt
463.3 km
Semi-major
6,840.8 km
B*
5.5229e-4
RAAN
161.5820°
Arg perigee
100.1771°
Mean anomaly
259.9339°
Rev number
2,791

§ Raw data

STARLINK-372041 68329U 26059J   26262.20349801  .00018340  00000+0  55229-3 0  99962 68329  53.1573 161.5820 0000951 100.1771 259.9339 15.34417763 27919

JSON: /api/v1/satellites/68329 · /tle

For live sub-satellite position, see the globe view (requires WebGL).

§ Visibility from observer

Set your observer location to see the next 7 days of passes ≥ 10°. The values pass through the URL so the page stays shareable.

No JS? Fill the form by hand. The geolocation button needs JavaScript.